Overview Statistics Trail Chart Weather Telemetry Raw packets
 

This is the latest recevied weather packets stored in our database for station/object KN6DHD. If no packets are shown the sender has not sent any weather packets the latest 10 day(s).

<< 102 103 104 105 106 107 108 >>
Time Temp. Humidity Pressure Rain* Wind** Luminosity Snow
1776967006 17.22° C 66% 1020.4 hPa 0 mm - 41 W/m² -
1776966703 17.22° C 65% 1020.3 hPa 0 mm - 40 W/m² -
1776966399 17.22° C 67% 1020.3 hPa 0 mm - 40 W/m² -
1776966094 17.22° C 68% 1020.1 hPa 0 mm - 39 W/m² -
1776965790 16.67° C 70% 1020.3 hPa 0 mm - 42 W/m² -
1776965488 16.11° C 72% 1020.4 hPa 0 mm - 39 W/m² -
1776965187 16.11° C 73% 1020.4 hPa 0 mm - 39 W/m² -
1776964883 15.56° C 73% 1020.5 hPa 0 mm - 39 W/m² -
1776964581 15.56° C 74% 1020.2 hPa 0 mm - 39 W/m² -
1776964287 15° C 76% 1020.5 hPa 0 mm - 37 W/m² -
1776963976 15° C 76% 1020.6 hPa 0 mm - 37 W/m² -
1776963670 15° C 77% 1020.5 hPa 0 mm - 37 W/m² -
1776963365 14.44° C 77% 1020.8 hPa 0 mm - 37 W/m² -
1776963063 13.89° C 79% 1020.8 hPa 0 mm - 37 W/m² -
1776962758 13.89° C 80% 1020.7 hPa 0 mm - 36 W/m² -
1776962452 13.89° C 80% 1021.1 hPa 0 mm - 36 W/m² -
1776962147 13.89° C 80% 1020.8 hPa 0 mm - 36 W/m² -
1776961846 13.89° C 80% 1020.7 hPa 0 mm - 36 W/m² -
1776961545 13.33° C 81% 1020.8 hPa 0 mm - 36 W/m² -
1776961245 13.33° C 82% 1021 hPa 0 mm - 36 W/m² -
1776960940 13.33° C 83% 1021.1 hPa 0 mm - 36 W/m² -
1776960635 12.78° C 83% 1021.1 hPa 0 mm - 35 W/m² -
1776960330 12.78° C 83% 1021.1 hPa 0 mm - 34 W/m² -
1776960025 12.78° C 83% 1021 hPa 0 mm - 39 W/m² -
1776959716 12.22° C 84% 1020.9 hPa 0 mm - 33 W/m² -

* Rain latest hour (hover to see other rain measurements)
** Current wind speed in m/s (hover to see current wind gust speed)